Location: Kelshall
(52.0000°N, 0.0500°W)
Time: 07:56:37
(UTC+00:00)

Meteor 1-15 Rocket - Pass Details

Date: 19 January 2021
Orbit: 840 x 907 km, 81.2° (Epoch: 24 February)

Event Time Altitude Azimuth Distance (km) Brightness Sun altitude
Exits shadow 05:57:34 24° 314° (NW) 1,704 5.3 -17.9°
Drops below altitude 10° 06:01:21 10° 355° (N) 2,515 6.5 -17.3°
Sets 06:04:17 0° 8° (N) 3,469 7.4 -16.9°
